STARLINK-5131 (53996 NORAD) Tracking and Keplerian Element Data

This shows tracking and keplerian element data for the satellite.

Feedback or suggestion? Click here.




ElementValue
Catalog53996
NameSTARLINK-5131
Epoch Orbit765
Epoch Day325.25001157
Epoch Year2022
RAAN223.8836
Inclination53.2169
Eccentricity0.0001329
Argument of Perigee32.7566
Mean Anonmoly299.7732
Mean Motion15.49844552
Decay Rate0.00027584
L11 53996U 22125AJ 22325.25001157 .00027584 00000+0 49293-3 0 9994
L22 53996 53.2169 223.8836 0001329 32.7566 299.7732 15.49844552 7650



Live tracking and technical data element details for STARLINK-5131 (NORAD 53996). STARLINK-5131 can be tracked NOW for your location showing map with azimuth and elevation plus other details from your city location.







IsCatalogInMostPopularTable: catalog: 53996, numindb: 3
Update: records affected: 1



GetName: 53996 STARLINK-5131

Hit Count: updated at: Fri, 09 Dec 2022 19:57:07 GMT